Retour au catalogue

SL-14 R/B

ActifPO
NORAD 14148·ROCKET BODY·🇷🇺 Russia

Lancé Jun 23, 1983 depuis Plesetsk Cosmodrome

Loading…

Prochains Passages (prochaines 24 heures)

TLE

FraisSource: Space-Track

Époque: Sep 14, 2026, 04:38 UTC

1 14148U 83061B   26257.19318582  .00000287  00000-0  30108-4 0  9998
2 14148  82.5215 344.0558 0020516 357.8211   2.2913 14.85800000314385

Suivez SL-14 R/B en temps réel avec AllMySat

Download on the App Store